Miami, FL

8:59 PM EST on February 11, 2016 (GMT -0500)
Kendall-Tamiami Executive

Weather History for KTMB - March, 2014

Change the Weather History Date:

Sunday, March 30, 2014

  Actual Average Record
Temperature  
Mean Temperature 72 °F -  
Max Temperature 82 °F 83 °F 87 °F (2001)
Min Temperature 57 °F 64 °F 54 °F (2005)
Cooling Degree Days 8    
Growing Degree Days 22 (Base 50)    
Moisture  
Dew Point 63 °F    
Average Humidity 76    
Maximum Humidity 100    
Minimum Humidity 28    
Precipitation  
Precipitation 0.01 in - - ()
Sea Level Pressure  
Sea Level Pressure 30.00 in    
Wind  
Wind Speed 8 mph (NW)    
Max Wind Speed 20 mph    
Max Gust Speed 25 mph    
Visibility 9 miles    
Events Rain , Thunderstorm    
Averages and records for this station are not official NWS values.
T = Trace of Precipitation, MM = Missing Value Source: NWS Daily Summary

Daily Weather History Graph

Daily Weather History Graph

Search for Another Location

Airport or City:

Trip Planner

Search our weather history database for the weather conditions in past years. The results will help you decide how hot, cold, wet, or windy it might be!

Date:

Astronomy

Mar. 30, 2014 Rise Set
Actual Time 7:15 AM EDT 7:37 PM EDT
Civil Twilight 6:52 AM EDT 8:00 PM EDT
Nautical Twilight 6:25 AM EDT 8:27 PM EDT
Astronomical Twilight 5:57 AM EDT 8:54 PM EDT
Moon 6:59 AM EDT (3/30) 7:45 PM EDT (3/30)
Length of Visible Light 13h 08m
Length of Day
12h 22m
Waning Crescent, 0% of the Moon is Illuminated
Mar 30
Waning Crescent
Mar 30
New
Apr 7
First Quarter
Apr 15
Full
Apr 22
Last Quarter

Hourly Weather History & Observations

Time (EDT) Temp. Heat Index Dew Point Humidity Pressure Visibility Wind Dir Wind Speed Gust Speed Precip Events Conditions
12:17 AM 71.1 °F - 68.0 °F 90% 29.97 in 10.0 mi SSW 6.9 mph - N/A Thunderstorm Clear
12:32 AM 71.1 °F - 68.0 °F 90% 29.98 in 10.0 mi South 4.6 mph - N/A   Clear
12:53 AM 71.1 °F - 68.0 °F 90% 29.97 in 10.0 mi SSW 4.6 mph - N/A   Clear
1:53 AM 70.0 °F - 68.0 °F 93% 29.97 in 10.0 mi SW 5.8 mph - N/A   Clear
2:53 AM 70.0 °F - 68.0 °F 93% 29.95 in 10.0 mi SSW 6.9 mph - N/A   Clear
3:53 AM 71.1 °F - 68.0 °F 90% 29.93 in 10.0 mi SW 6.9 mph - N/A   Mostly Cloudy
4:53 AM 72.0 °F - 69.1 °F 91% 29.93 in 10.0 mi WSW 6.9 mph - N/A   Overcast
5:53 AM 72.0 °F - 71.1 °F 97% 29.94 in 10.0 mi WNW 5.8 mph - N/A   Overcast
6:04 AM 72.0 °F - 71.1 °F 97% 29.95 in 10.0 mi West 6.9 mph - N/A   Overcast
6:28 AM 72.0 °F - 71.1 °F 97% 29.95 in 10.0 mi West 5.8 mph - 0.00 in   Overcast
6:53 AM 72.0 °F - 72.0 °F 100% 29.96 in 10.0 mi WNW 4.6 mph - 0.00 in   Overcast
7:30 AM 73.0 °F - 72.0 °F 96% 29.98 in 5.0 mi WNW 10.4 mph - 0.00 in Rain Light Rain
7:53 AM 73.0 °F - 72.0 °F 96% 29.99 in 7.0 mi NW 9.2 mph - 0.00 in Rain Light Rain
8:00 AM 73.0 °F - 72.0 °F 96% 29.99 in 4.0 mi NNW 10.4 mph - 0.01 in Rain Light Rain
8:09 AM 72.0 °F - 71.1 °F 97% 29.99 in 5.0 mi NW 13.8 mph - 0.01 in   Overcast
8:40 AM 72.0 °F - 66.9 °F 84% 30.01 in 10.0 mi NNW 12.7 mph - 0.01 in   Overcast
8:53 AM 71.1 °F - 68.0 °F 90% 30.01 in 10.0 mi NNW 11.5 mph - 0.01 in   Scattered Clouds
9:53 AM 72.0 °F - 64.9 °F 78% 30.04 in 10.0 mi North 17.3 mph - N/A   Scattered Clouds
10:53 AM 75.0 °F - 66.0 °F 73% 30.05 in 10.0 mi NNW 18.4 mph - N/A   Scattered Clouds
11:53 AM 75.9 °F - 64.0 °F 67% 30.05 in 10.0 mi NNW 19.6 mph - N/A   Partly Cloudy
12:53 PM 77.0 °F - 63.0 °F 62% 30.05 in 10.0 mi NW 13.8 mph - N/A   Clear
1:53 PM 80.1 °F 81.1 °F 61.0 °F 52% 30.04 in 10.0 mi NNW 13.8 mph 25.3 mph N/A   Clear
2:53 PM 82.0 °F - 51.1 °F 34% 30.02 in 10.0 mi NW 13.8 mph - N/A   Clear
3:53 PM 80.1 °F - 44.1 °F 28% 30.00 in 10.0 mi NNW 12.7 mph - N/A   Clear
4:53 PM 80.1 °F - 44.1 °F 28% 29.99 in 10.0 mi NNW 12.7 mph 20.7 mph N/A   Clear
5:53 PM 79.0 °F - 48.0 °F 34% 29.99 in 10.0 mi North 10.4 mph - N/A   Clear
6:53 PM 75.9 °F - 50.0 °F 40% 30.01 in 10.0 mi North 8.1 mph - N/A   Clear
7:53 PM 72.0 °F - 51.1 °F 48% 30.02 in 10.0 mi North 6.9 mph - N/A   Clear
8:53 PM 64.0 °F - 55.0 °F 73% 30.03 in 10.0 mi NW 4.6 mph - N/A   Clear
9:53 PM 66.0 °F - 53.1 °F 63% 30.06 in 10.0 mi North 5.8 mph - N/A   Clear
10:53 PM 63.0 °F - 53.1 °F 70% 30.07 in 10.0 mi NNE 4.6 mph - N/A   Clear
11:53 PM 57.0 °F - 55.0 °F 93% 30.09 in 10.0 mi West 8.1 mph - N/A   Clear